Regional Weather Roundup
Issued by NWS

Home | Current Version | Previous Version | Text Only | Print | Product List | Glossary On
Versions: 1 2 3 4 5 6 7 8 9 10 11 12 13 14 15 16 17 18 19 20 21 22 23 24 25 26 27 28 29 30 31 32 33 34 35 36 37 38 39 40 41 42 43 44 45 46 47 48 49 50
000
ASUS43 KTOP 240908
RWRKS

WEATHER ROUNDUP FOR KANSAS
NATIONAL WEATHER SERVICE GOODLAND KS
400 AM CDT FRI MAR 24 2017

NOTE:  "FAIR" INDICATES FEW OR NO CLOUDS BELOW 12,000 FEET WITH NO
SIGNIFICANT WEATHER AND/OR OBSTRUCTIONS TO VISIBILITY.

KSZ001>006-013>018-027>032-041>047-241000-
NORTHWEST KANSAS

CITY           SKY/WX    TMP DP  RH WIND       PRES   REMARKS
GOODLAND       CLOUDY    51  49  92 NE25G32   29.60F
HAYS             N/A     61  46  57 E6        29.62
HILL CITY      MOCLDY    56  55  97 E8        29.62F
RUSSELL        CLOUDY    66  45  46 SE14      29.61S
$$

KSZ061>065-074>080-084>089-241000-
SOUTHWEST KANSAS

CITY           SKY/WX    TMP DP  RH WIND       PRES   REMARKS
DODGE CITY     CLOUDY    57  51  80 S16       29.58F
ELKHART          N/A     42  28  57 S20         N/A
GARDEN CITY    CLOUDY    51  38  60 S22G31    29.55S
GREAT BEND     CLOUDY    65  45  48 SE23      29.60F
LIBERAL        CLEAR     50  30  46 S18       29.54F
PRATT          CLOUDY    63  42  46 S22G29    29.62F
$$

KSZ066>073-081>083-090>101-241000-
SOUTHEAST KANSAS

CITY           SKY/WX    TMP DP  RH WIND       PRES   REMARKS
CHANUTE        CLEAR     68  46  45 S16       29.81F
COFFEYVILLE    CLEAR     68  45  43 S15       29.82F
HUTCHINSON     CLOUDY    67  44  43 S25G32    29.66F
MEDICINE LODGE   N/A     66  43  43 S18G26    29.62F
NEWTON         CLOUDY    68  42  38 S26G37    29.70F
PARSONS        CLEAR     68  45  43 S12G21    29.82F
WICHITA INTL   CLOUDY    69  41  36 S24G31    29.70F
WICHITA JABRA  CLOUDY    69  41  36 S24G36    29.71F
WICHITA MCCONL MOCLDY    69  39  32 S23G32    29.71F
WINFIELD       CLOUDY    70  39  32 S22G30    29.74F
$$

KSZ007>012-019>026-033>040-048>060-102>105-241000-
NORTHEAST KANSAS

CITY           SKY/WX    TMP DP  RH WIND       PRES   REMARKS
CONCORDIA      CLOUDY    69  48  47 S22G31    29.65F
EMPORIA        CLOUDY    64  50  60 S14       29.75F
LAWRENCE       CLOUDY    68  51  54 S14       29.77F
MANHATTAN      PTCLDY    70  48  45 S15G22    29.69F
MARYSVILLE     MOCLDY    66  48  52 S8        29.70F
OLATHE IND     MOCLDY    68  50  52 S16G28    29.80F
OLATHE EXE     MOCLDY    67  50  54 S14       29.80F
SALINA         CLOUDY    70  46  42 S18G28    29.66F
TOPEKA BILLARD CLOUDY    68  51  54 S10       29.75F
TOPEKA FORBES  CLOUDY    68  50  52 S14       29.75F
$$




USA.gov is the U.S. government's official web portal to all federal, state and local government web resources and services.